Location: Unspecified
(57.6483°N, 3.3184°W)
Time: 19:31:42
(UTC+01:00)

N. Korean satellite - Pass Details

Date: 05 March 2021
Orbit: 452 x 499 km, 97.2° (Epoch: 20 April)

Event Time Altitude Azimuth Distance (km) Brightness Sun altitude
Rises 06:00:01 0° 14° (NNE) 2,523 10.4 -8.3°
Reaches altitude 10° 06:02:04 10° 15° (NNE) 1,649 9.5 -8.1°
Maximum altitude 06:05:37 89° 274° (W) 486 6.5 -7.6°
Drops below altitude 10° 06:09:11 10° 196° (SSW) 1,663 9.1 -7.1°
Sets 06:11:16 0° 197° (SSW) 2,547 10.0 -6.8°
